Weather History for KSLE - December, 2011

Change the Weather History Date:

Saturday, December 24, 2011

  Actual Average Record
Temperature  
Mean Temperature 41 °F 39 °F  
Max Temperature 50 °F 45 °F 60 °F (2005)
Min Temperature 31 °F 33 °F 10 °F (1990)
Degree Days  
Heating Degree Days 24 26  
Month to date heating degree days 669 595  
Since 1 July heating degree days 1656 1712  
Cooling Degree Days 0 0  
Month to date cooling degree days 0 0  
Year to date cooling degree days 316 290  
Moisture  
Dew Point 33 °F    
Average Humidity 74    
Maximum Humidity 96    
Minimum Humidity 52    
Precipitation  
Precipitation 0.00 in 0.22 in 2.16 in (1980)
Month to date precipitation 0.12 5.42  
Year to date precipitation 32.68 38.23  
Snow  
Snow 0.00 in - - ()
Month to date snowfall 0.0  
Snow Depth 0.00 in    
Sea Level Pressure  
Sea Level Pressure 30.43 in    
Wind  
Wind Speed 1 mph (East)    
Max Wind Speed 8 mph    
Max Gust Speed 23 mph    
Visibility 9 miles    
Events      
T = Trace of Precipitation, MM = Missing Value Source: NWS Daily Summary

Daily Weather History Graph

Daily Weather History Graph

Search for Another Location

Airport or City:

Trip Planner

Search our weather history database for the weather conditions in past years. The results will help you decide how hot, cold, wet, or windy it might be!

Date:

Astronomy

Dec. 24, 2011 Rise Set
Actual Time 7:48 AM PST 4:35 PM PST
Civil Twilight 7:14 AM PST 5:08 PM PST
Nautical Twilight 6:37 AM PST 5:46 PM PST
Astronomical Twilight 6:01 AM PST 6:21 PM PST
Moon 7:41 AM PST (12/24) 4:54 PM PST (12/24)
Length of Visible Light 9h 54m
Length of Day
8h 46m
New Moon, 0% of the Moon is Illuminated
Dec 24
New Moon
Dec 31
First Quarter
Jan 8
Full
Jan 16
Last Quarter
Jan 22
New

Hourly Weather History & Observations

Time (PST) Temp. Windchill Dew Point Humidity Pressure Visibility Wind Dir Wind Speed Gust Speed Precip Events Conditions
1:56 AM 32.0 °F - 28.9 °F 88% 30.56 in 8.0 mi Calm Calm - N/A   Overcast
2:56 AM 36.0 °F - 30.9 °F 82% 30.54 in 10.0 mi Calm Calm - N/A   Scattered Clouds
3:56 AM 32.0 °F - 28.9 °F 88% 30.53 in 10.0 mi Calm Calm - N/A   Clear
4:56 AM 32.0 °F - 30.0 °F 92% 30.52 in 10.0 mi Calm Calm - N/A   Partly Cloudy
5:56 AM 33.1 °F - 30.0 °F 89% 30.51 in 10.0 mi Calm Calm - N/A   Clear
6:56 AM 35.1 °F - 32.0 °F 89% 30.51 in 10.0 mi Calm Calm - N/A   Overcast
7:56 AM 35.1 °F - 32.0 °F 89% 30.50 in 8.0 mi Calm Calm - N/A   Mostly Cloudy
8:56 AM 37.0 °F - 33.1 °F 86% 30.51 in 6.0 mi Calm Calm - N/A   Clear
9:56 AM 37.9 °F - 34.0 °F 86% 30.51 in 7.0 mi Calm Calm - N/A   Clear
10:56 AM 42.1 °F - 33.1 °F 70% 30.51 in 10.0 mi Calm Calm - N/A   Clear
11:56 AM 44.1 °F - 34.0 °F 68% 30.49 in 8.0 mi Calm Calm - N/A   Clear
12:56 PM 46.0 °F - 34.0 °F 63% 30.46 in 10.0 mi Calm Calm - N/A   Clear
1:56 PM 48.0 °F - 35.1 °F 61% 30.43 in 10.0 mi North 3.5 mph - N/A   Clear
2:56 PM 50.0 °F - 34.0 °F 54% 30.42 in 10.0 mi Calm Calm - N/A   Clear
3:56 PM 46.9 °F - 36.0 °F 66% 30.40 in 10.0 mi NE 3.5 mph - N/A   Clear
4:56 PM 45.0 °F - 34.0 °F 65% 30.39 in 10.0 mi Calm Calm - N/A   Clear
5:56 PM 39.9 °F - 34.0 °F 79% 30.37 in 10.0 mi Calm Calm - N/A   Clear
6:56 PM 39.0 °F 36.8 °F 34.0 °F 82% 30.35 in 10.0 mi SE 3.5 mph - N/A   Clear
7:56 PM 39.9 °F - 35.1 °F 83% 30.33 in 10.0 mi Calm Calm - N/A   Clear
8:56 PM 37.0 °F - 34.0 °F 89% 30.30 in 7.0 mi Calm Calm - N/A   Clear
9:56 PM 36.0 °F - 33.1 °F 89% 30.28 in 8.0 mi Calm Calm - N/A   Clear
10:56 PM 34.0 °F - 32.0 °F 92% 30.28 in 8.0 mi Calm Calm - N/A   Clear
11:56 PM 37.0 °F 34.5 °F 33.1 °F 86% 30.25 in 9.0 mi SSE 3.5 mph - N/A   Clear